Find Menut

NORAD ID: 55010 Int'l Des: 2023-001 Owner: OCOSB/IEEC Country: E operational
LEOCIRCULARRETROGRADESSO

Live Position

Loading 3D Globe...

About Menut

Description loading...

Upcoming Passes

Passes for default location (London). Set your location on the main map for personalized predictions.

Altitude History

Loading altitude history...

Two-Line Element Set

1 55010U 23001B 26105.59924469 .00035463 00000-0 56754-3 0 9990
2 55010 97.3217 171.9512 0003456 358.9822 1.1424 15.53048247182667
Epoch: Apr 15, 2026 • Age: 8 hours

Current Status

Altitude 417.3 km
Velocity 7.67 km/s
Sub-Earth Point 61.23°N, 20.94°W
Launch Date Jan 3, 2023
Age 3.2 years
Type other

Technical Details

Classification Payload
Mass 10.00 kg
Dry Mass 10.00 kg
Total Mass 10.00 kg
Length 0.30 m
Diameter 0.20 m
Span 0.30 m
Shape Box+ 2 pan
Manufacturer OCOSB
Bus Type Cubesat 6U
Phase Status In Orbit
Owner/State OCOSB/IEEC/E

Most Searched